Location: Rometta
(44.2000°N, 10.0500°E)
Time: 21:35:39
(UTC+00:00)

Cosmos 1626 Rocket - Pass Details

Date: 20 January 2021
Orbit: 603 x 631 km, 82.5° (Epoch: 03 March)

Event Time Altitude Azimuth Distance (km) Brightness Sun altitude
Rises 17:44:49 0° 173° (S) 2,862 7.0 -16.2°
Reaches altitude 10° 17:47:03 10° 168° (SSE) 1,967 6.1 -16.6°
Maximum altitude 17:51:15 49° 93° (E) 797 3.7 -17.3°
Enters shadow 17:54:01 20° 26° (NNE) 1,433 5.1 -17.8°
